When you browse on this site, cookies collect data to enhance your experience and personalize the content and advertising you see.
Visit our Privacy Policy to learn more. By continuing to use the site, you agree to this use of cookies and data.
  • In Austria
  • List of Countries
  • For 7 days
  • Water Temperature
  • Satellite Maps
  • Weather Map
  • News
  • Weather Widgets
  • user-avatar
    Login

    Hourly Weather Ischgl

    Today, 26 May, Sunday

    Time Temperature Precipitation Wind Pressure Humidity
    00:00 +2°C° 0.7 mm 1 mps 572 mmHg 96%
    01:00 +2°C° 0.7 mm 1 mps 572 mmHg 95%
    02:00 +2°C° 0.2 mm 1 mps 572 mmHg 95%
    03:00 0°C° 0.2 mm 0 mps 572 mmHg 95%
    04:00 0°C° 0.2 mm 0 mps 572 mmHg 95%
    05:00 +1°C° 0 mm 0 mps 572 mmHg 94%
    06:00 +3°C° 0 mm 1 mps 573 mmHg 92%
    07:00 +3°C° 0 mm 1 mps 573 mmHg 91%
    08:00 +4°C° 0 mm 1 mps 574 mmHg 86%
    09:00 +6°C° 0 mm 1 mps 574 mmHg 81%
    10:00 +7°C° 0 mm 1 mps 575 mmHg 76%
    11:00 +7°C° 0.1 mm 1 mps 575 mmHg 76%
    12:00 +7°C° 0.1 mm 1 mps 575 mmHg 76%
    13:00 +8°C° 0.1 mm 1 mps 575 mmHg 76%
    14:00 +8°C° 0.2 mm 1 mps 575 mmHg 74%
    15:00 +9°C° 0.2 mm 1 mps 575 mmHg 73%
    16:00 +9°C° 0.2 mm 1 mps 575 mmHg 72%
    17:00 +8°C° 0.3 mm 1 mps 575 mmHg 78%
    18:00 +7°C° 0.3 mm 1 mps 574 mmHg 84%
    19:00 +6°C° 0.3 mm 1 mps 574 mmHg 90%
    20:00 +5°C° 0.2 mm 1 mps 573 mmHg 92%
    21:00 +3°C° 0.2 mm 0 mps 573 mmHg 95%
    22:00 +2°C° 0.2 mm 0 mps 573 mmHg 97%
    23:00 +2°C° 0.1 mm 0 mps 572 mmHg 97%

    Tomorrow, 27 May, Monday

    Time Temperature Precipitation Wind Pressure Humidity
    00:00 +2°C° 0.1 mm 0 mps 572 mmHg 97%
    01:00 +2°C° 0.1 mm 0 mps 572 mmHg 97%
    02:00 +2°C° 0.1 mm 0 mps 571 mmHg 97%
    03:00 +3°C° 0.1 mm 1 mps 571 mmHg 98%
    04:00 +3°C° 0.1 mm 1 mps 571 mmHg 98%
    05:00 +4°C° 0.1 mm 1 mps 571 mmHg 96%
    06:00 +4°C° 0.1 mm 1 mps 572 mmHg 95%
    07:00 +5°C° 0.1 mm 1 mps 572 mmHg 94%
    08:00 +5°C° 0.3 mm 1 mps 572 mmHg 91%
    09:00 +5°C° 0.3 mm 2 mps 572 mmHg 89%
    10:00 +6°C° 0.3 mm 2 mps 572 mmHg 86%
    11:00 +6°C° 0.4 mm 2 mps 572 mmHg 86%
    12:00 +6°C° 0.4 mm 2 mps 572 mmHg 86%
    13:00 +6°C° 0.4 mm 2 mps 572 mmHg 85%
    14:00 +6°C° 0.5 mm 2 mps 572 mmHg 86%
    15:00 +6°C° 0.5 mm 2 mps 571 mmHg 87%
    16:00 +6°C° 0.5 mm 2 mps 571 mmHg 88%
    17:00 +6°C° 0.4 mm 2 mps 571 mmHg 90%
    18:00 +5°C° 0.4 mm 2 mps 571 mmHg 92%
    19:00 +5°C° 0.4 mm 2 mps 570 mmHg 95%
    20:00 +4°C° 0.9 mm 2 mps 570 mmHg 96%
    21:00 +4°C° 0.9 mm 2 mps 570 mmHg 97%
    22:00 +4°C° 0.9 mm 1 mps 570 mmHg 98%
    23:00 +4°C° 1.3 mm 1 mps 569 mmHg 98%

    Day after tomorrow, 28 May, Tuesday

    Time Temperature Precipitation Wind Pressure Humidity
    00:00 +4°C° 1.3 mm 1 mps 569 mmHg 98%
    01:00 +4°C° 1.3 mm 1 mps 569 mmHg 98%
    02:00 +3°C° 0.9 mm 1 mps 568 mmHg 98%
    03:00 +3°C° 0.9 mm 1 mps 568 mmHg 98%
    04:00 +3°C° 0.9 mm 1 mps 568 mmHg 98%
    05:00 +3°C° 1.6 mm 1 mps 568 mmHg 98%
    06:00 +2°C° 1.6 mm 2 mps 568 mmHg 97%
    07:00 +2°C° 1.6 mm 2 mps 568 mmHg 97%
    08:00 +2°C° 1 mm 2 mps 568 mmHg 97%
    09:00 +2°C° 1 mm 2 mps 568 mmHg 96%
    10:00 +3°C° 1 mm 2 mps 568 mmHg 95%
    11:00 +2°C° 0.8 mm 2 mps 568 mmHg 95%
    12:00 +2°C° 0.8 mm 2 mps 568 mmHg 95%
    13:00 +2°C° 0.8 mm 2 mps 568 mmHg 95%
    14:00 +2°C° 0.9 mm 2 mps 568 mmHg 95%
    15:00 +1°C° 0.9 mm 3 mps 568 mmHg 95%
    16:00 +1°C° 0.9 mm 3 mps 567 mmHg 95%
    17:00 0°C° 1 mm 3 mps 567 mmHg 96%
    18:00 0°C° 1 mm 3 mps 567 mmHg 96%
    19:00 -1°C° 1 mm 3 mps 567 mmHg 97%
    20:00 -1°C° 1.6 mm 3 mps 567 mmHg 97%
    21:00 -2°C° 1.6 mm 3 mps 568 mmHg 97%
    22:00 -2°C° 1.6 mm 3 mps 568 mmHg 97%
    23:00 -2°C° 1 mm 3 mps 568 mmHg 97%

    29 May, Wednesday

    Time Temperature Precipitation Wind Pressure Humidity
    00:00 -3°C° 1 mm 2 mps 568 mmHg 97%
    01:00 -3°C° 1 mm 2 mps 568 mmHg 97%
    02:00 -3°C° 0.4 mm 2 mps 567 mmHg 97%
    03:00 -4°C° 0.4 mm 2 mps 567 mmHg 97%
    04:00 -5°C° 0.4 mm 3 mps 567 mmHg 97%
    05:00 -5°C° 0.3 mm 3 mps 568 mmHg 96%
    06:00 -4°C° 0.3 mm 3 mps 568 mmHg 95%
    07:00 -4°C° 0.3 mm 3 mps 569 mmHg 94%
    08:00 -4°C° 0.4 mm 3 mps 569 mmHg 94%
    09:00 -4°C° 0.4 mm 3 mps 569 mmHg 94%
    10:00 -2°C° 0.4 mm 3 mps 570 mmHg 93%
    11:00 -2°C° 0.3 mm 3 mps 570 mmHg 93%
    12:00 -2°C° 0.3 mm 3 mps 570 mmHg 92%
    13:00 -2°C° 0.3 mm 3 mps 571 mmHg 91%
    14:00 -1°C° 0.3 mm 3 mps 571 mmHg 91%
    15:00 -1°C° 0.3 mm 3 mps 571 mmHg 90%
    16:00 -1°C° 0.3 mm 3 mps 571 mmHg 90%
    17:00 -1°C° 0.2 mm 2 mps 571 mmHg 91%
    18:00 -2°C° 0.2 mm 2 mps 572 mmHg 92%
    19:00 -2°C° 0.2 mm 2 mps 572 mmHg 93%
    20:00 -3°C° 0.1 mm 2 mps 572 mmHg 94%
    21:00 -3°C° 0.1 mm 2 mps 573 mmHg 95%
    22:00 -2°C° 0.1 mm 1 mps 573 mmHg 96%
    23:00 -3°C° 0 mm 1 mps 573 mmHg 96%

    30 May, Thursday

    Time Temperature Precipitation Wind Pressure Humidity
    00:00 -3°C° 0 mm 1 mps 573 mmHg 96%
    01:00 -4°C° 0 mm 1 mps 573 mmHg 95%
    02:00 -4°C° 0 mm 1 mps 573 mmHg 95%
    03:00 -4°C° 0 mm 1 mps 573 mmHg 95%
    04:00 -4°C° 0 mm 1 mps 573 mmHg 95%
    05:00 -3°C° 0 mm 1 mps 574 mmHg 92%
    06:00 -2°C° 0 mm 1 mps 575 mmHg 90%
    07:00 -1°C° 0 mm 1 mps 575 mmHg 87%
    08:00 +1°C° 0 mm 1 mps 576 mmHg 85%
    09:00 +2°C° 0 mm 1 mps 576 mmHg 83%
    10:00 +2°C° 0 mm 2 mps 577 mmHg 81%
    11:00 +4°C° 0 mm 1 mps 577 mmHg 78%
    12:00 +5°C° 0 mm 1 mps 578 mmHg 75%
    13:00 +6°C° 0 mm 1 mps 578 mmHg 71%
    14:00 +6°C° 0 mm 1 mps 578 mmHg 69%
    15:00 +7°C° 0 mm 1 mps 579 mmHg 67%
    16:00 +7°C° 0 mm 1 mps 579 mmHg 64%
    17:00 +6°C° 0 mm 1 mps 578 mmHg 70%
    18:00 +5°C° 0 mm 1 mps 578 mmHg 75%
    19:00 +4°C° 0 mm 1 mps 578 mmHg 81%
    20:00 +2°C° 0 mm 1 mps 577 mmHg 85%
    21:00 +1°C° 0 mm 1 mps 577 mmHg 89%
    22:00 -1°C° 0 mm 1 mps 576 mmHg 93%
    23:00 -1°C° 0 mm 1 mps 577 mmHg 93%

    31 May, Friday

    Time Temperature Precipitation Wind Pressure Humidity
    00:00 0°C° 0 mm 1 mps 577 mmHg 94%
    01:00 0°C° 0 mm 1 mps 577 mmHg 94%
    02:00 0°C° 0 mm 1 mps 577 mmHg 93%
    03:00 0°C° 0 mm 1 mps 577 mmHg 92%
    04:00 -1°C° 0 mm 1 mps 577 mmHg 91%
    05:00 +1°C° 0 mm 1 mps 578 mmHg 87%
    06:00 +3°C° 0 mm 1 mps 579 mmHg 83%
    07:00 +4°C° 0 mm 1 mps 580 mmHg 79%
    08:00 +5°C° 0.2 mm 1 mps 580 mmHg 79%
    09:00 +5°C° 0.2 mm 1 mps 580 mmHg 79%
    10:00 +5°C° 0.2 mm 2 mps 580 mmHg 79%
    11:00 +5°C° 0.4 mm 2 mps 580 mmHg 80%
    12:00 +5°C° 0.4 mm 2 mps 580 mmHg 80%
    13:00 +5°C° 0.4 mm 2 mps 580 mmHg 81%
    14:00 +6°C° 0.1 mm 2 mps 581 mmHg 79%
    15:00 +6°C° 0.1 mm 2 mps 581 mmHg 78%
    16:00 +7°C° 0.1 mm 2 mps 581 mmHg 76%
    17:00 +6°C° 0.1 mm 2 mps 581 mmHg 82%
    18:00 +6°C° 0.1 mm 1 mps 580 mmHg 88%
    19:00 +5°C° 0.1 mm 1 mps 580 mmHg 94%
    20:00 +4°C° 0 mm 1 mps 580 mmHg 95%
    21:00 +3°C° 0 mm 1 mps 579 mmHg 96%
    22:00 +2°C° 0 mm 1 mps 579 mmHg 97%
    23:00 +1°C° 0 mm 1 mps 579 mmHg 97%
    Show more